Temp
8 9 9 9 10 10 10 10 10 11 11 11 11 11 12 12 12 12 13 13 13 13 13 13 13 13 13 13 15 16 16 15 15 15 15 15 14 15 14 15 16 15 15 16 16 16 16
9 9 9 9 9 9 10 10 10 10 11 11 11 11 11 11 12 12 12 12 13 13 13 12 12 12 12 11 15 16 16 15 15 15 15 15 15 16 16 16 15 16 15 15 15 15 15
9 8 8 9 9 9 10 10 10 10 10 10 10 11 11 11 11 12 12 12 13 13 12 12 12 11 11 14 15 15 15 15 15 15 15 15 15 15 16 16 16 16 15 14 14 14 14
7 7 8 8 8 9 9 9 9 10 10 10 10 10 11 11 11 12 12 12 12 13 12 12 11 11 12 13 14 14 14 14 14 14 14 14 14 15 16 16 15 14 15 13 14 13 14
7 7 7 8 8 8 8 8 9 9 9 9 10 10 9 9 10 11 11 12 12 12 11 11 11 11 12 13 12 13 14 14 14 13 13 14 14 15 15 13 12 13 12 12 14 13 12
7 6 7 7 8 8 8 8 8 8 9 9 9 9 10 10 10 10 11 11 11 11 10 11 10 10 12 12 13 13 13 13 12 12 13 13 14 11 10 10 10 12 12 13 12 12 12
7 7 7 8 8 8 8 8 8 8 8 8 8 9 9 9 10 10 10 9 11 9 9 12 12 12 13 13 13 12 12 12 13 12 9 12 9 9 11 11 13 14 13 14 12 12 12
7 7 7 8 8 8 8 8 8 8 8 8 8 8 8 9 10 10 10 10 10 9 9 12 13 12 12 13 12 12 12 12 12 9 11 10 9 11 11 11 12 12 13 13 12 12 12
7 7 7 7 7 7 7 7 7 7 7 7 8 8 8 8 9 9 9 9 9 9 9 12 14 13 12 12 12 11 12 12 11 9 10 9 11 11 12 12 12 11 11 12 13 11 11
7 7 7 7 7 7 7 6 6 7 7 7 7 8 7 8 8 8 8 9 9 9 7 11 11 12 12 13 12 13 12 13 11 10 10 10 12 13 11 12 12 10 12 13 10 9 8
7 7 7 6 7 6 6 6 6 6 6 7 7 7 7 7 8 8 8 8 9 9 6 11 10 11 12 12 12 11 12 12 11 11 10 10 11 11 12 12 11 11 12 11 9 7 7
7 7 6 6 6 5 6 6 6 5 6 6 6 7 7 7 7 8 8 8 9 7 5 10 10 10 10 11 11 10 11 12 12 12 11 10 10 10 10 9 10 9 9 8 7 5 3
6 6 5 5 5 5 5 5 5 5 6 6 6 6 6 6 7 7 8 8 6 6 10 10 9 10 10 10 9 10 9 9 8 9 9 9 9 8 9 8 9 8 7 4 5 3 6
6 6 5 6 6 6 6 6 6 6 6 6 5 6 6 6 6 7 8 5 5 8 10 10 11 9 9 10 10 9 8 8 8 9 6 7 8 7 7 8 7 6 7 5 7 6 7
6 6 6 6 6 6 6 7 7 7 7 6 6 5 5 5 6 6 7 5 5 8 9 9 10 10 9 11 10 9 7 7 8 8 9 6 8 6 5 7 7 7 7 8 4 6 3
6 6 7 7 7 7 7 7 7 7 6 6 5 4 4 5 5 5 4 5 7 9 8 8 9 9 9 10 10 9 8 8 9 9 8 9 6 6 5 7 7 6 6 7 3 5 7
6 6 6 6 7 7 7 8 7 6 6 5 5 4 3 4 4 5 4 4 6 8 8 6 7 7 8 7 8 8 10 10 9 9 10 9 6 4 5 4 4 4 3 5 6 5 6
6 6 6 6 7 7 8 7 6 6 5 5 4 4 3 3 4 4 4 6 8 8 9 8 8 7 7 7 5 8 8 8 7 8 8 8 3 1 4 1 -0 3 5 4 6 4 2
6 6 6 6 7 7 7 7 6 5 5 4 4 4 4 4 4 3 4 5 7 7 6 7 8 8 9 7 5 7 8 6 6 7 7 5 4 2 5 3 2 0 1 -0 2 2 2
6 6 6 6 7 7 7 6 6 5 5 5 4 4 4 4 3 2 2 4 4 4 5 6 6 7 7 7 8 7 6 5 5 6 6 7 5 4 7 6 3 1 2 2 6 1 4
6 6 6 6 6 6 6 6 6 6 5 5 5 3 3 3 4 3 2 2 4 4 4 4 4 4 6 5 7 6 6 4 4 5 5 5 3 6 5 5 3 2 2 3 5 7 7
5 6 6 6 6 6 6 6 6 6 6 5 4 4 3 3 3 3 3 3 3 4 4 4 4 4 3 3 5 5 5 5 5 4 4 3 3 2 1 3 0 2 0 2 4 1 2
5 6 6 6 6 6 6 6 6 6 5 5 4 4 3 3 3 3 3 2 4 4 4 4 4 3 3 3 3 2 3 3 3 4 3 2 2 3 4 3 1 2 -2 1 2 1 5
5 6 6 5 5 5 6 5 5 5 5 4 4 3 2 1 2 3 5 4 5 5 4 4 3 2 2 1 1 0 -0 -0 -0 2 2 1 2 2 2 1 5 3 -5 -1 3 2 3
4 5 5 5 5 5 5 4 4 4 4 4 3 3 2 -1 0 1 2 3 3 4 3 3 2 1 1 1 1 2 1 1 1 -1 -0 -0 2 3 3 3 4 5 0 -0 3 2 -4
4 5 5 4 4 4 4 4 3 3 3 3 3 1 1 -2 -2 -0 -0 2 0 -1 0 0 0 0 0 0 2 2 3 3 1 -0 -2 -1 -2 2 1 3 2 3 0 0 -2 -1 -4
4 4 4 3 3 3 3 2 1 1 2 2 2 0 -0 -1 -3 -2 -4 -3 -1 -2 -3 -1 -1 -1 -0 -1 1 1 3 4 1 1 -2 -1 -1 1 1 1 1 -1 -1 -0 0 0 -4
4 4 4 3 2 1 1 0 0 -0 0 1 -0 -1 -1 -2 -5 -5 -5 -5 -4 -4 -5 -2 -3 -3 -3 -2 -0 -0 -1 -1 -2 1 -1 -1 -1 -2 0 0 1 -5 -1 0 -4 -4 -4
4 3 3 1 0 0 0 -0 -0 -0 0 0 -1 -2 -3 -3 -6 -6 -6 -7 -7 -6 -6 -4 -3 -3 -4 -4 -4 -4 -1 -5 -4 -0 -1 -1 -1 -1 -0 -1 -6 -7 -7 -6 -5 -5 -6
Height
1513 1511 1510 1509 1507 1504 1502 1501 1501 1499 1497 1496 1495 1493 1490 1489 1488 1487 1486 1486 1485 1486 1486 1486 1487 1487 1488 1488 1483 1483 1484 1485 1488 1490 1493 1495 1499 1502 1502 1501 1503 1504 1504 1505 1504 1506 1506
1510 1509 1508 1507 1505 1503 1501 1500 1498 1497 1496 1494 1492 1491 1490 1488 1487 1485 1484 1483 1483 1484 1485 1486 1486 1486 1487 1486 1481 1481 1482 1484 1487 1489 1491 1494 1497 1499 1500 1499 1500 1498 1503 1504 1503 1505 1505
1508 1507 1505 1504 1504 1502 1500 1498 1496 1495 1493 1492 1490 1489 1487 1487 1486 1484 1483 1481 1481 1480 1482 1482 1484 1484 1482 1479 1479 1480 1481 1484 1486 1488 1490 1494 1496 1499 1497 1499 1497 1498 1504 1504 1503 1502 1505
1507 1506 1505 1503 1502 1501 1499 1497 1495 1493 1491 1489 1487 1485 1485 1484 1483 1482 1481 1480 1478 1477 1479 1479 1480 1482 1478 1476 1476 1478 1480 1482 1485 1487 1489 1493 1495 1496 1497 1498 1498 1500 1503 1510 1499 1500 1504
1504 1504 1504 1502 1501 1500 1498 1495 1493 1491 1489 1487 1486 1484 1483 1481 1479 1477 1477 1477 1476 1475 1476 1477 1479 1481 1476 1473 1473 1475 1478 1480 1483 1486 1489 1492 1495 1496 1497 1500 1505 1502 1510 1507 1501 1500 1502
1503 1502 1503 1502 1500 1498 1496 1494 1492 1489 1487 1485 1483 1482 1480 1479 1478 1476 1474 1474 1473 1473 1475 1476 1477 1482 1471 1466 1469 1473 1476 1478 1481 1485 1489 1491 1493 1496 1496 1501 1512 1504 1505 1501 1502 1499 1500
1501 1501 1500 1499 1497 1496 1494 1492 1490 1488 1486 1484 1481 1479 1478 1476 1475 1474 1475 1474 1475 1476 1473 1466 1465 1465 1463 1465 1467 1470 1474 1477 1480 1484 1488 1487 1495 1496 1488 1490 1491 1493 1497 1496 1496 1491 1495
1500 1499 1497 1496 1495 1493 1492 1490 1487 1485 1483 1482 1480 1478 1476 1474 1473 1472 1473 1473 1473 1476 1470 1461 1461 1464 1464 1465 1467 1470 1474 1476 1477 1481 1483 1490 1491 1479 1486 1489 1491 1494 1497 1496 1498 1494 1495
1500 1498 1497 1495 1494 1492 1490 1488 1485 1482 1480 1479 1477 1475 1474 1472 1471 1470 1470 1471 1472 1473 1470 1456 1452 1454 1458 1463 1462 1463 1469 1471 1472 1479 1479 1483 1477 1474 1482 1485 1490 1492 1497 1496 1498 1498 1497
1500 1498 1495 1494 1492 1490 1488 1485 1482 1480 1477 1476 1474 1472 1470 1470 1472 1468 1468 1468 1468 1471 1471 1454 1448 1447 1452 1456 1458 1457 1461 1466 1468 1471 1475 1478 1471 1471 1478 1480 1482 1493 1484 1487 1496 1505 1514
1495 1495 1493 1491 1489 1486 1484 1482 1480 1478 1475 1472 1471 1469 1467 1466 1467 1468 1468 1466 1466 1468 1477 1443 1444 1444 1445 1450 1450 1454 1458 1462 1463 1463 1469 1472 1468 1471 1475 1474 1476 1484 1481 1486 1494 1505 1507
1494 1494 1491 1488 1485 1483 1481 1479 1477 1474 1472 1469 1466 1465 1463 1463 1464 1464 1464 1466 1468 1474 1476 1443 1442 1443 1448 1448 1449 1452 1456 1460 1460 1462 1463 1467 1468 1469 1470 1474 1474 1479 1487 1494 1501 1511 1535
1493 1492 1489 1485 1481 1480 1480 1477 1473 1470 1468 1465 1461 1460 1460 1460 1461 1461 1462 1465 1477 1471 1445 1443 1442 1442 1444 1446 1451 1452 1456 1459 1461 1469 1469 1469 1470 1471 1471 1477 1477 1480 1493 1526 1528 1537 1513
1491 1489 1487 1485 1482 1480 1477 1474 1470 1466 1463 1460 1457 1456 1456 1456 1458 1460 1462 1466 1468 1453 1443 1442 1438 1441 1444 1442 1448 1450 1455 1459 1456 1456 1469 1472 1477 1471 1468 1470 1475 1482 1482 1503 1509 1509 1495
1492 1488 1485 1484 1482 1478 1475 1470 1467 1463 1458 1455 1454 1453 1452 1453 1455 1458 1460 1465 1458 1446 1446 1449 1443 1442 1443 1438 1441 1446 1453 1454 1450 1450 1457 1469 1464 1469 1469 1468 1469 1478 1484 1476 1500 1495 1515
1492 1489 1486 1483 1481 1477 1473 1470 1465 1460 1455 1452 1452 1451 1453 1453 1456 1458 1463 1457 1451 1446 1447 1447 1444 1441 1441 1440 1441 1443 1446 1439 1440 1438 1442 1449 1467 1470 1471 1470 1470 1471 1472 1485 1499 1503 1495
1490 1488 1485 1483 1481 1477 1473 1469 1464 1460 1454 1451 1452 1453 1455 1454 1458 1459 1461 1458 1453 1448 1446 1454 1449 1446 1447 1449 1445 1441 1436 1435 1433 1433 1437 1444 1456 1477 1472 1473 1472 1476 1482 1476 1475 1480 1484
1490 1487 1484 1482 1479 1476 1473 1469 1465 1461 1457 1455 1455 1456 1457 1457 1461 1460 1458 1452 1449 1447 1446 1447 1446 1444 1445 1447 1455 1443 1439 1437 1435 1434 1440 1442 1461 1480 1469 1470 1471 1467 1465 1466 1468 1481 1488
1489 1486 1484 1483 1480 1476 1473 1469 1466 1463 1459 1456 1458 1459 1459 1459 1460 1460 1455 1453 1450 1448 1448 1446 1444 1442 1440 1444 1451 1444 1439 1440 1437 1435 1437 1442 1455 1478 1464 1471 1469 1473 1468 1468 1467 1469 1481
1489 1486 1485 1482 1480 1476 1473 1470 1468 1464 1461 1460 1460 1460 1460 1460 1461 1462 1460 1455 1454 1450 1448 1446 1444 1443 1443 1442 1438 1437 1438 1441 1439 1438 1439 1439 1446 1450 1441 1441 1450 1464 1456 1456 1451 1479 1462
1488 1486 1486 1483 1479 1476 1474 1471 1469 1466 1463 1462 1461 1461 1460 1459 1457 1458 1459 1459 1453 1451 1448 1446 1443 1442 1440 1443 1436 1435 1437 1440 1441 1436 1440 1442 1451 1440 1443 1443 1445 1449 1450 1448 1446 1436 1443
1488 1487 1487 1483 1480 1476 1473 1471 1469 1466 1464 1463 1463 1462 1460 1457 1456 1455 1455 1453 1450 1448 1447 1443 1442 1440 1440 1440 1435 1434 1435 1435 1433 1438 1439 1442 1446 1449 1455 1448 1453 1450 1449 1447 1443 1452 1450
1489 1486 1486 1484 1481 1476 1473 1472 1470 1467 1465 1463 1461 1461 1460 1455 1452 1453 1450 1447 1444 1444 1439 1439 1439 1441 1439 1437 1436 1436 1436 1435 1435 1435 1437 1439 1448 1448 1445 1447 1452 1447 1448 1441 1441 1439 1431
1491 1486 1486 1485 1482 1477 1473 1472 1470 1466 1464 1464 1462 1460 1458 1456 1451 1447 1443 1443 1441 1441 1439 1436 1437 1438 1437 1436 1437 1436 1436 1436 1437 1435 1436 1439 1442 1446 1447 1452 1439 1427 1434 1431 1426 1427 1425
1491 1486 1486 1484 1481 1477 1473 1471 1470 1466 1463 1461 1460 1459 1456 1454 1448 1444 1441 1440 1438 1436 1436 1436 1435 1436 1436 1437 1438 1435 1436 1437 1434 1437 1437 1438 1437 1438 1438 1437 1427 1416 1429 1431 1426 1426 1430
1491 1486 1485 1483 1481 1476 1472 1469 1467 1464 1461 1458 1457 1455 1454 1453 1447 1445 1442 1439 1439 1438 1436 1435 1436 1436 1436 1436 1435 1436 1430 1425 1433 1437 1439 1438 1440 1437 1444 1437 1438 1426 1428 1426 1426 1440 1430
1489 1486 1483 1482 1478 1474 1469 1465 1463 1460 1457 1456 1454 1453 1452 1451 1448 1446 1445 1445 1441 1439 1439 1436 1436 1437 1437 1437 1435 1432 1424 1419 1429 1430 1442 1441 1441 1438 1440 1439 1433 1432 1431 1428 1440 1435 1431
1488 1485 1482 1480 1475 1471 1466 1463 1460 1457 1454 1452 1451 1450 1451 1450 1448 1447 1446 1446 1443 1443 1443 1438 1439 1437 1438 1440 1435 1430 1431 1428 1431 1425 1432 1433 1438 1442 1436 1440 1434 1436 1431 1432 1438 1434 1432
1486 1483 1479 1478 1473 1469 1465 1462 1458 1455 1452 1449 1448 1448 1448 1449 1450 1449 1449 1448 1447 1446 1445 1440 1440 1437 1437 1438 1436 1435 1431 1437 1436 1430 1426 1431 1431 1431 1431 1434 1444 1442 1441 1440 1437 1435 1434
Wind_Speed
11 14 14 15 15 15 14 14 14 14 15 15 15 13 12 12 11 11 10 10 9 10 10 10 10 9 10 8 10 7 3 12 17 20 20 19 19 8 5 6 6 4 3 4 4 3 3
10 11 13 15 15 15 15 14 14 14 14 14 15 15 15 14 13 12 11 10 9 9 10 10 11 12 11 6 8 8 7 13 18 19 20 20 15 15 5 5 8 7 7 5 5 5 3
8 10 10 12 14 16 16 15 14 14 15 14 14 15 15 15 15 14 13 11 10 8 9 9 11 12 13 16 8 7 11 14 17 18 19 19 12 7 2 2 4 6 4 1 6 7 3
8 11 12 11 12 16 16 15 15 15 15 15 15 13 13 14 14 14 14 13 9 8 9 8 9 12 8 11 19 16 10 15 15 16 15 18 13 8 2 5 3 4 2 2 1 10 4
6 10 10 11 14 16 16 16 17 17 17 16 16 16 17 16 12 12 12 12 10 8 7 7 8 9 7 9 18 15 16 16 16 16 14 13 13 4 5 4 1 3 4 5 1 11 4
6 8 12 13 13 13 15 16 16 16 15 15 14 14 14 15 16 14 9 8 6 3 6 9 8 5 14 11 15 18 16 11 13 15 12 8 6 2 1 4 7 5 3 4 6 8 4
6 9 10 9 10 12 14 15 16 17 17 15 14 14 14 14 13 13 11 3 3 3 14 12 11 7 2 10 10 15 20 17 11 13 7 7 4 10 13 9 6 4 4 3 1 4 5
7 8 8 9 10 12 15 15 15 16 16 16 16 15 15 14 14 10 9 5 3 5 10 20 23 21 9 13 8 19 23 16 10 7 5 4 9 12 8 7 8 8 4 3 2 0 3
7 8 10 11 13 16 16 15 16 16 17 17 16 16 17 16 15 13 6 7 10 6 5 10 22 29 16 20 9 25 30 16 6 7 10 9 7 11 9 7 10 6 8 5 4 2 2
9 11 12 14 15 16 16 15 15 16 17 18 18 17 16 16 12 5 5 5 5 10 3 5 8 8 22 14 6 17 34 15 6 14 5 7 9 5 6 6 8 7 7 7 7 4 4
10 14 16 16 15 15 14 15 16 18 19 19 20 18 14 12 11 8 5 7 0 8 3 3 5 5 14 15 13 10 28 17 7 8 7 7 6 7 5 6 8 7 1 7 6 4 3
12 15 16 16 16 16 16 17 19 20 20 20 20 18 13 10 10 8 8 3 5 3 7 3 4 5 6 5 3 5 8 7 4 4 4 3 1 1 4 2 2 8 7 8 5 3 2
14 16 17 19 17 15 15 17 19 20 22 22 22 14 13 9 6 2 4 8 2 4 4 3 4 5 4 6 3 4 5 6 6 6 6 2 1 1 3 6 6 5 7 2 2 2 6
12 14 17 18 16 14 17 19 20 20 21 20 13 12 13 11 9 6 11 4 7 5 5 9 0 6 6 7 5 7 7 6 7 2 4 7 4 8 5 6 8 6 7 6 8 5 4
10 15 15 15 16 17 19 21 23 21 20 17 11 15 8 4 11 9 13 4 5 3 2 4 7 2 5 5 5 6 8 6 8 10 8 6 4 1 4 2 5 5 5 4 5 2 3
9 14 14 16 17 19 22 23 23 21 20 16 10 6 3 4 14 14 3 4 4 4 6 5 4 2 1 3 7 10 9 7 7 12 4 5 3 2 1 1 1 3 3 3 2 3 4
8 13 13 16 18 21 24 25 22 21 21 10 6 3 10 2 11 7 2 5 4 7 6 3 5 3 2 4 3 5 4 4 4 4 16 5 4 1 2 7 8 2 1 2 3 5 6
9 10 12 14 17 19 22 24 20 21 15 11 7 2 5 10 2 3 3 3 3 0 2 5 5 6 3 0 5 6 7 1 8 1 8 2 5 4 7 2 2 2 6 6 4 6 3
9 11 13 14 16 17 19 22 19 17 16 8 4 3 4 1 1 2 5 5 2 2 3 3 3 2 1 7 2 10 8 4 4 3 4 4 2 2 3 3 2 4 5 4 2 3 6
10 12 14 15 17 18 20 20 19 12 13 8 2 2 2 2 1 2 2 3 5 4 4 4 4 4 3 5 6 4 5 2 1 3 5 2 3 6 9 5 5 6 6 6 7 3 5
12 15 15 16 17 18 20 20 19 16 10 7 2 1 0 2 2 2 1 3 4 3 4 4 4 11 7 4 4 7 3 3 2 6 3 3 3 3 0 1 2 4 4 13 16 17 9
13 14 15 16 17 18 19 20 20 17 10 4 4 3 3 5 5 4 5 5 3 3 4 4 5 5 6 6 2 2 1 4 3 0 4 2 2 2 2 1 2 3 4 9 12 3 5
13 14 15 16 16 18 19 20 20 19 16 4 4 3 3 6 2 3 4 6 5 4 10 9 6 1 5 4 6 1 5 2 2 3 2 6 3 3 5 1 1 7 9 10 5 4 9
12 14 14 16 17 18 19 19 19 18 17 12 9 5 1 4 2 4 3 5 6 5 5 1 9 4 2 4 1 4 3 3 4 3 2 4 6 2 2 1 6 5 2 2 6 3 10
12 14 15 16 17 18 18 18 18 17 15 13 9 4 3 3 5 8 4 4 10 8 3 2 3 4 8 3 1 1 1 1 4 2 2 4 4 3 4 5 7 3 4 5 6 6 3
13 15 17 19 20 21 21 21 20 18 15 13 10 5 4 1 3 6 4 4 2 2 3 1 2 4 6 2 1 3 3 4 2 1 1 3 4 1 2 3 6 2 2 2 2 4 6
15 17 19 21 23 23 23 22 22 20 17 14 9 7 5 5 4 8 4 4 7 3 2 1 2 2 2 1 2 3 3 3 4 5 4 2 2 4 3 2 6 3 4 4 5 4 10
18 21 23 24 23 23 22 21 19 19 18 15 9 6 5 4 6 8 5 5 7 5 1 5 3 1 2 0 2 3 2 3 1 4 5 6 6 3 2 2 7 10 2 2 2 6 6
21 22 23 22 22 22 22 22 21 19 18 15 6 9 8 4 1 7 8 8 9 5 5 4 3 1 1 0 1 2 2 2 1 2 1 1 2 3 1 1 4 13 9 9 6 5 4
Wind_Direction
327 338 344 345 349 351 347 338 334 332 330 329 325 321 317 315 313 309 306 297 277 266 262 246 233 216 206 223 243 256 259 191 188 186 183 174 182 189 187 196 170 180 239 177 157 194 168
311 321 331 341 346 350 350 345 335 331 328 325 325 324 320 315 312 308 304 297 281 268 256 245 226 211 204 229 242 241 224 196 197 191 187 183 196 197 310 224 171 188 211 181 184 189 180
310 318 326 337 348 351 348 344 339 330 325 323 322 322 321 319 316 312 308 299 290 270 258 246 229 211 218 235 240 237 215 204 197 196 191 182 170 208 252 190 160 124 144 254 206 181 204
312 313 321 329 340 343 341 342 336 331 326 321 317 312 310 312 313 314 311 305 288 278 265 239 219 214 241 237 246 240 203 193 195 188 192 198 217 218 222 135 79 128 138 189 277 150 195
306 322 323 325 333 338 342 344 341 334 329 326 324 321 320 314 306 305 310 309 293 271 238 228 196 204 246 216 211 221 216 200 188 190 192 198 209 191 149 140 46 214 189 199 278 189 140
309 313 317 324 331 336 342 341 338 334 330 326 324 323 318 316 316 318 313 313 290 255 193 168 170 234 237 213 209 211 192 198 162 172 176 177 181 159 166 146 209 181 206 226 198 210 164
333 332 330 337 336 334 338 338 336 334 330 328 328 326 329 325 317 318 314 287 301 257 202 199 197 213 180 177 174 192 175 171 158 161 169 190 128 209 199 186 197 174 191 237 279 200 136
334 336 335 329 331 333 331 330 333 330 324 324 321 326 322 325 324 310 296 260 253 287 289 243 236 226 241 182 163 181 179 172 159 195 148 119 215 212 179 209 213 242 258 248 6 218 147
345 337 331 328 328 328 324 319 320 324 326 322 316 314 317 316 318 308 297 280 250 273 254 268 225 217 203 201 198 187 186 192 174 178 191 176 221 180 199 201 207 211 204 215 211 188 282
340 339 335 329 326 322 318 322 329 330 329 323 317 312 309 308 315 329 326 346 295 231 262 251 202 206 202 184 229 207 192 179 194 196 187 227 234 159 180 212 165 203 193 176 147 124 227
342 336 327 323 322 322 327 328 325 322 322 320 318 316 306 306 300 286 268 353 263 165 280 244 145 167 185 170 141 188 195 205 200 182 149 227 172 173 179 209 163 219 163 174 157 136 81
346 334 330 325 323 324 323 320 319 317 316 317 316 309 313 288 285 279 265 94 118 63 253 234 138 153 132 195 102 100 165 198 181 195 82 167 93 60 149 87 175 145 74 43 55 83 324
343 343 341 336 332 328 330 330 325 322 317 317 313 301 303 278 258 206 169 142 48 214 263 216 192 162 158 166 119 142 166 182 170 150 192 98 159 112 133 76 2 93 101 33 360 346 228
6 19 18 19 20 4 345 335 330 324 319 323 327 314 296 280 222 217 171 74 203 216 267 346 182 142 184 151 185 175 154 194 256 200 133 157 262 172 184 183 178 187 157 157 196 198 232
25 21 17 12 7 6 356 348 338 329 320 315 316 325 332 313 197 183 162 209 209 211 98 193 307 216 216 191 152 144 193 205 212 191 177 167 241 8 51 35 132 191 203 169 104 12 60
18 8 10 12 9 9 2 355 347 347 341 320 331 354 354 27 159 160 116 266 260 66 9 349 218 160 321 272 179 172 179 220 217 195 177 186 106 3 313 3 358 158 190 101 351 166 240
12 3 11 15 13 11 7 5 5 4 1 14 21 49 21 196 171 152 210 233 305 301 193 133 313 331 56 354 300 217 196 300 238 182 196 160 115 274 109 209 184 159 242 235 145 160 185
359 19 21 18 17 14 9 9 14 11 33 38 36 64 31 134 78 210 232 252 319 166 213 243 229 198 222 102 326 320 218 201 350 231 163 137 117 167 197 275 223 283 207 172 164 242 215
34 31 25 21 19 16 12 11 13 21 31 40 51 6 107 46 293 299 336 324 288 311 323 344 295 249 202 172 211 202 278 309 356 53 139 207 208 88 319 352 13 209 209 179 149 89 202
36 33 26 21 18 16 16 14 9 10 18 27 34 49 60 229 217 126 316 292 293 356 296 281 276 301 266 227 221 261 189 242 313 55 69 90 195 190 224 192 138 188 202 190 165 154 189
39 32 23 23 21 19 15 15 11 3 355 11 19 195 243 293 234 206 161 325 282 278 266 261 256 242 231 234 240 202 170 163 270 126 60 113 202 220 309 115 133 200 185 183 207 218 197
43 39 32 28 25 23 22 16 14 13 8 32 359 351 273 264 235 216 184 222 237 251 222 233 247 292 333 216 208 341 150 208 189 320 137 64 253 74 272 162 85 272 236 205 228 283 289
48 41 31 26 22 21 18 14 12 13 14 1 335 268 285 273 217 189 211 218 230 180 230 219 196 213 261 266 300 207 308 268 339 174 217 123 146 123 257 254 335 303 207 190 189 215 209
43 37 23 16 11 10 10 6 5 8 9 1 343 322 218 267 255 224 275 237 262 243 244 261 210 173 243 189 291 54 65 31 327 273 210 155 146 147 213 58 228 257 252 169 221 223 215
31 28 17 10 5 5 3 359 356 358 356 352 336 308 242 255 244 298 330 297 310 298 254 259 210 207 164 153 102 55 336 289 216 139 311 332 143 184 192 210 325 260 206 156 169 271 326
23 16 6 356 350 348 346 343 340 342 344 340 331 301 268 208 264 309 296 296 281 312 318 34 342 220 184 176 186 201 224 213 233 317 121 62 45 214 144 194 221 280 360 347 106 290 333
9 359 351 344 340 339 339 338 337 335 336 340 322 304 282 266 349 2 9 314 332 329 250 334 360 152 210 194 205 214 240 147 178 186 172 147 150 196 188 224 282 3 327 343 104 255 329
356 348 346 345 345 350 352 352 349 345 345 346 325 309 312 270 339 355 4 6 336 360 51 352 359 321 54 277 201 257 196 239 72 152 173 165 153 199 125 156 252 354 343 179 317 352 20
352 352 354 358 3 5 4 1 359 353 346 346 317 314 310 239 24 24 39 38 21 339 306 298 299 302 37 25 352 355 313 27 154 257 35 319 167 176 118 125 32 40 55 43 56 69 47